Regional Weather Roundup
Issued by NWS Albany, NY

Home | Current Version | Previous Version | Text Only | Print | Product List | Glossary On
Versions: 1 2 3 4 5 6 7 8 9 10 11 12 13 14 15 16 17 18 19 20 21 22 23 24 25 26 27
000
ASUS41 KALY 191510
RWRALY

NEW YORK STATE HOURLY WEATHER ROUNDUP
NATIONAL WEATHER SERVICE ALBANY NY
1100 AM EDT SAT APR 19 2014

NOTE: "FAIR" INDICATES FEW OR NO CLOUDS BELOW 12,000 FEET WITH NO
SIGNIFICANT WEATHER AND/OR NO OBSTRUCTIONS TO VISIBILITY.

NYZ032-033-038>043-046>054-057>066-NYZ062>081-191600-
EAST


CITY           SKY/WX    TMP DP  RH WIND       PRES   REMARKS
ALBANY         MOSUNNY   52  33  48 VRB5      30.30R
GLENS FALLS    CLOUDY    55  33  43 N9G18     30.29R
POUGHKEEPSIE   SUNNY     58  31  35 NW8       30.27S
NEWBURGH       SUNNY     55  30  38 W10       30.29S
MONTGOMERY     SUNNY     57  28  33 NW9G20    30.27F
WHITE PLAINS   SUNNY     58  28  32 N16G23    30.25S
ISLIP          PTSUNNY   57  32  38 N14G21    30.25R
NEW YORK CITY  PTSUNNY   57  29  34 NW8       30.27R
CENTRAL PARK   SUNNY     59  25  27 VRB7      30.29S
$$

NYZ005>009-017-018-044>046-055-056-191600-
CENTRAL


CITY           SKY/WX    TMP DP  RH WIND       PRES   REMARKS
FULTON         CLOUDY    42  33  70 N13       30.41R
SYRACUSE       CLOUDY    42  35  76 NW12      30.41R
ROME           PTSUNNY   44  36  73 CALM      30.37S
ELMIRA         SUNNY     48  31  51 NE9       30.39R
BINGHAMTON     SUNNY     46  30  53 N12G20    30.34R
MONTICELLO     MOSUNNY   52  28  40 N17       30.30S
$$

NYZ026>034-041>043-191600-
NORTH


CITY           SKY/WX    TMP DP  RH WIND       PRES   REMARKS
WATERTOWN      CLOUDY    44  30  57 N7        30.41R
FORT DRUM      NOT AVBL
MASSENA        CLOUDY    43  32  65 NW14      30.40R
SARANAC LAKE   CLOUDY    35  32  88 VRB6      30.29S WCI  30
PLATTSBURGH    CLOUDY    43  38  82 NW14      30.32R
$$

NYZ001>004-010>016-019>021-191600-
WEST


CITY           SKY/WX    TMP DP  RH WIND       PRES   REMARKS
NIAGARA FALLS  MOSUNNY   44  32  62 NE9       30.45R
BUFFALO        MOSUNNY   45  32  60 NE12      30.44R
DUNKIRK        SUNNY     43  32  65 NE12      30.45R
JAMESTOWN      SUNNY     45  25  45 N13       30.39S
WELLSVILLE     SUNNY     46  28  49 NE10      30.37R
ROCHESTER      PTSUNNY   42  32  67 NE13      30.45R
PENN YAN       CLOUDY    44  32  62 N9        30.41R
$$

             KEY
       WCI = WIND CHILL INDEX
       VSB = VISIBILITY
       HX  = HEAT INDEX
$$



USA.gov is the U.S. government's official web portal to all federal, state and local government web resources and services.